This is the latest recevied weather packets stored in our database for station/object VK6JI-11. If no packets are shown the sender has not sent any weather packets the latest 10 day(s).
| Time | Temp. | Humidity | Pressure | Rain* | Wind** | Luminosity | Snow |
|---|---|---|---|---|---|---|---|
| 1778232113 | 21.67° C | 48% | 1024.9 hPa | 0 mm | - | 9 W/m² | - |
| 1778231993 | 21.67° C | 48% | 1024.9 hPa | 0 mm | - | 16 W/m² | - |
| 1778231873 | 21.67° C | 48% | 1024.8 hPa | 0 mm | - | 16 W/m² | - |
| 1778231750 | 21.67° C | 48% | 1024.9 hPa | 0 mm | - | 16 W/m² | - |
| 1778231629 | 21.67° C | 48% | 1024.9 hPa | 0 mm | - | 16 W/m² | - |
| 1778231510 | 21.67° C | 48% | 1025 hPa | 0 mm | - | 16 W/m² | - |
| 1778231390 | 21.67° C | 48% | 1024.9 hPa | 0 mm | - | 18 W/m² | - |
| 1778231270 | 21.67° C | 48% | 1024.9 hPa | 0 mm | - | 19 W/m² | - |
| 1778231150 | 21.67° C | 48% | 1024.8 hPa | 0 mm | - | 21 W/m² | - |
| 1778231028 | 22.22° C | 47% | 1024.8 hPa | 0 mm | - | 23 W/m² | - |
| 1778230907 | 22.22° C | 47% | 1024.7 hPa | 0 mm | - | 25 W/m² | - |
| 1778230787 | 22.22° C | 47% | 1024.8 hPa | 0 mm | - | 26 W/m² | - |
| 1778230667 | 22.22° C | 47% | 1024.7 hPa | 0 mm | - | 26 W/m² | - |
| 1778230547 | 22.22° C | 46% | 1024.8 hPa | 0 mm | - | 30 W/m² | - |
| 1778230427 | 22.22° C | 46% | 1024.6 hPa | 0 mm | - | 58 W/m² | - |
| 1778230307 | 22.22° C | 46% | 1024.7 hPa | 0 mm | - | 41 W/m² | - |
| 1778230188 | 22.22° C | 46% | 1024.7 hPa | 0 mm | - | 32 W/m² | - |
| 1778230068 | 22.22° C | 46% | 1024.7 hPa | 0 mm | - | 35 W/m² | - |
| 1778229947 | 22.22° C | 46% | 1024.6 hPa | 0 mm | - | 30 W/m² | - |
| 1778229827 | 22.22° C | 46% | 1024.6 hPa | 0 mm | - | 28 W/m² | - |
| 1778229708 | 22.22° C | 46% | 1024.7 hPa | 0 mm | - | 28 W/m² | - |
| 1778229588 | 22.22° C | 46% | 1024.6 hPa | 0 mm | - | 28 W/m² | - |
| 1778229467 | 22.78° C | 46% | 1024.6 hPa | 0 mm | - | 28 W/m² | - |
| 1778229347 | 22.78° C | 46% | 1024.6 hPa | 0 mm | - | 35 W/m² | - |
| 1778229216 | 22.78° C | 46% | 1024.6 hPa | 0 mm | - | 35 W/m² | - |
* Rain latest hour (hover to see other rain measurements)
** Current wind speed in m/s (hover to see current wind gust speed)